User: anonymous   Login
Location: Long Geng
(2.6167°N, 114.1333°E)
Time: 05:41:27
(UTC+00:00)
Language:

Cosmos 1825 Rocket - Orbit

View from above orbital plane
View from above orbital plane
View from above satellite
View from above satellite

Ground track
Ground track

The orbit data is extracted from the following two-line orbital elements,

1 17567U 87024B   21210.54113879  .00000090  00000-0  78928-5 0  9999
2 17567  82.5271 231.7905 0020644  68.1456 292.1952 14.83813617838300
Epoch (UTC): 29 July 2021 12:59:14
Eccentricity: 0.0020644
inclination: 82.5271°
perigee height: 603 km
apogee height: 632 km
right ascension of ascending node: 231.7905°
argument of perigee: 68.1456°
revolutions per day: 14.83813617
mean anomaly at epoch: 292.1952°
orbit number at epoch: 83830

The dashed part of the orbit path shows where the satellite is in the earth's shadow,  

DLR